Regional Weather Roundup
Issued by NWS State College, PA

Home | Current Version | Previous Version | Graphics & Text | Print | Product List | Glossary On
Versions: 1 2 3 4 5 6 7 8 9 10 11 12 13 14 15 16 17 18 19 20 21 22 23 24 25 26 27 28 29 30 31 32 33 34 35 36 37 38 39 40 41 42 43 44 45 46 47 48 49 50
000
ASUS41 KCTP 270003
RWRCTP

REGIONAL WEATHER ROUNDUP
NATIONAL WEATHER SERVICE STATE COLLEGE PA
800 PM EDT SUN APR 26 2015

Note: "fair" indicates few or no clouds below 12,000 feet with no
significant weather and/or obstructions to visibility.

* = STATION THAT DOES NOT REPORT PRECIPITATION /E.G. RAIN...SNOW...ETC/
    THUNDER OR FOG.

PAZ002>004-007>009-013>016-020>023-029>032-270100-
WESTERN PENNSYLVANIA

CITY           SKY/WX    TMP DP  RH WIND       PRES   REMARKS
ERIE           CLOUDY    43  32  65 W12       29.84S
MEADVILLE      CLOUDY    46  31  55 NW7       29.83R
FRANKLIN*      MOCLDY    46  27  46 NW6       29.83R
NEW CASTLE     CLOUDY    50  31  48 N14G20    29.84R
BEAVER COUNTY  NOT AVBL
BUTLER*        CLEAR     48  27  43 N7        29.82R
PITTSBURGH INT PTCLDY    52  26  36 N21       29.80R
PITTSBURGH     PTCLDY    52  23  32 NW16G23   29.77R
INDIANA*       CLOUDY    54  28  37 N6        29.79R
LATROBE        MOCLDY    55  28  35 N16       29.76R
WASHINGTON CO* CLEAR     52  27  37 N9        29.80R
$$

PAZ004>006-010>012-017>019-024>028-033>037-041-042-045-046-049>053-270100-
CENTRAL PENNSYLVANIA

CITY           SKY/WX    TMP DP  RH WIND       PRES   REMARKS
BRADFORD       CLOUDY    44  28  53 NW9       29.77S
DUBOIS         PTCLDY    49  25  39 N10       29.76R
CLEARFIELD     CLEAR     48  26  42 N10G23    29.76R
JOHNSTOWN      CLOUDY    50  25  37 NW10      29.72R
ALTOONA        CLOUDY    54  25  32 N13       29.72R
STATE COLLEGE  MOCLDY    52  27  37 N8        29.74R
WILLIAMSPORT   CLOUDY    51  27  39 N6        29.75R
SELINSGROVE    PTCLDY    52  28  39 N12       29.74R
FT INDIANTOWN  CLEAR     54  25  32 N6        29.71R
CAPITAL CITY   PTCLDY    57  27  31 N7        29.71R
HARRISBURG     PTCLDY    57  27  31 N7        29.70R
YORK           MOCLDY    55  31  39 N3        29.70R
$$

PAZ038>040-043-044-047-048-054-055-060>062-067>071-270100-
EASTERN PENNSYLVANIA

CITY           SKY/WX    TMP DP  RH WIND       PRES   REMARKS
SCRANTON       CLOUDY    50  28  42 NW7       29.73R
MOUNT POCONO   CLOUDY    46  26  45 NW7       29.70R
ALLENTOWN      CLEAR     52  28  39 N9        29.71R
QUAKERTOWN*    PTCLDY    54  28  37 N9        29.71R
READING        PTCLDY    56  26  31 N9        29.70R
LANCASTER      PTCLDY    54  29  38 N10       29.70R
COATESVILLE    CLOUDY    55  28  35 N8        29.70R
POTTSTOWN      MOCLDY    55  28  35 N10       29.71R
BLUE BELL      MOCLDY    57  32  38 CALM      29.68R
DOYLESTOWN     MOCLDY    54  27  35 N10       29.68R
WILLOW GROVE   NOT AVBL
NORTH PHILA    MOCLDY    58  28  32 N6        29.69R
PHILADELPHIA   MOCLDY    60  27  28 N5        29.68R
$$



USA.gov is the U.S. government's official web portal to all federal, state and local government web resources and services.